Poplar Bluff, MO

11:35 PM CST on December 10, 2019 (GMT -0600)
Poplar Bluff Municipal

Weather History for KPOF - November, 2019

Change the Weather History Date:

Tuesday, November 12, 2019

  Actual Average Record
Temperature  
Mean Temperature 22 °F 49 °F  
Max Temperature 28 °F 59 °F 80 °F (1955)
Min Temperature 17 °F 39 °F 19 °F (1950)
Degree Days  
Heating Degree Days 42 16  
Month to date heating degree days 287 167  
Since 1 July heating degree days 539 420  
Cooling Degree Days 0 0  
Month to date cooling degree days 0 0  
Year to date cooling degree days 1830 1561  
Moisture  
Dew Point 9 °F    
Average Humidity 58    
Maximum Humidity 77    
Minimum Humidity 39    
Precipitation  
Precipitation 0.00 in 0.17 in 2.02 in (1992)
Month to date precipitation 2.89 2.09  
Year to date precipitation 63.62 41.30  
Sea Level Pressure  
Sea Level Pressure 30.56 in    
Wind  
Wind Speed 10 mph ()    
Max Wind Speed 25 mph    
Max Gust Speed 34 mph    
Visibility 10.0 miles    
Events      
T = Trace of Precipitation, MM = Missing Value Source: Averaged Metar Reports

Daily Weather History Graph

Daily Weather History Graph

Search for Another Location

Airport or City:

Astronomy

Nov. 12, 2019 Rise Set
Actual Time 6:36 AM CST 4:54 PM CST
Civil Twilight 6:08 AM CST 5:21 PM CST
Nautical Twilight 5:37 AM CST 5:52 PM CST
Astronomical Twilight 5:06 AM CST 6:23 PM CST
Moon 5:20 PM CST (11/12) 6:28 AM CST (11/12)
Length of Visible Light 11h 13m
Length of Day
10h 18m
Full, 100% of the Moon is Illuminated
Nov 12
Full
Nov 19
Last Quarter
Nov 26
New
Dec 4
First Quarter
Dec 11
Full

Hourly Weather History & Observations

Time (CST) Temp. Windchill Dew Point Humidity Pressure Visibility Wind Dir Wind Speed Gust Speed Precip Events Conditions
12:53 AM 21.0 °F 7.1 °F 10.9 °F 65% 30.52 in 10.0 mi North 16.1 mph 28.8 mph N/A   Partly Cloudy
1:53 AM 19.9 °F 3.9 °F 10.0 °F 65% 30.53 in 10.0 mi North 20.7 mph 29.9 mph N/A   Partly Cloudy
2:53 AM 19.0 °F 4.0 °F 9.0 °F 65% 30.55 in 10.0 mi North 17.3 mph 28.8 mph N/A   Clear
3:53 AM 19.0 °F 5.0 °F 9.0 °F 65% 30.57 in 10.0 mi North 15.0 mph 24.2 mph N/A   Clear
4:53 AM 18.0 °F 4.8 °F 8.1 °F 65% 30.59 in 10.0 mi North 12.7 mph 24.2 mph N/A   Clear
5:53 AM 18.0 °F 4.8 °F 8.1 °F 65% 30.61 in 10.0 mi North 12.7 mph 21.9 mph N/A   Clear
6:53 AM 17.1 °F 3.6 °F 7.0 °F 65% 30.62 in 10.0 mi North 12.7 mph - N/A   Clear
9:53 AM 19.9 °F 8.6 °F 7.0 °F 57% 30.66 in 10.0 mi NNE 10.4 mph 20.7 mph N/A   Clear
10:53 AM 21.9 °F 10.4 °F 7.0 °F 53% 30.65 in 10.0 mi NNE 11.5 mph - N/A   Clear
11:53 AM 24.1 °F 16.0 °F 6.1 °F 46% 30.63 in 10.0 mi NNW 6.9 mph - N/A   Clear
12:53 PM 25.0 °F 14.2 °F 7.0 °F 46% 30.60 in 10.0 mi North 11.5 mph - N/A   Clear
1:53 PM 27.0 °F 18.0 °F 8.1 °F 45% 30.56 in 10.0 mi NW 9.2 mph - N/A   Clear
2:53 PM 28.0 °F 19.3 °F 7.0 °F 41% 30.54 in 10.0 mi NE 9.2 mph - N/A   Clear
3:53 PM 28.0 °F 20.0 °F 6.1 °F 39% 30.53 in 10.0 mi NE 8.1 mph - N/A   Clear
4:53 PM 26.1 °F 18.4 °F 6.1 °F 43% 30.53 in 10.0 mi NNE 6.9 mph - N/A   Clear
5:53 PM 24.1 °F 18.2 °F 10.0 °F 55% 30.55 in 10.0 mi NNE 4.6 mph - N/A   Clear
6:53 PM 23.0 °F 15.8 °F 12.0 °F 63% 30.55 in 10.0 mi ENE 5.8 mph - N/A   Clear
7:53 PM 21.9 °F 14.5 °F 10.0 °F 60% 30.55 in 10.0 mi ENE 5.8 mph - N/A   Clear
8:53 PM 19.9 °F - 10.0 °F 65% 30.55 in 10.0 mi Calm Calm - N/A   Clear
9:53 PM 19.9 °F 14.9 °F 10.9 °F 68% 30.53 in 10.0 mi ESE 3.5 mph - N/A   Clear
10:53 PM 19.0 °F - 12.9 °F 77% 30.50 in 10.0 mi Calm Calm - N/A   Clear
11:53 PM 19.0 °F 13.9 °F 10.9 °F 71% 30.48 in 10.0 mi SE 3.5 mph - N/A   Clear